AirNav   Air Wisconsin pilot careers
 
 775 users online  

PN35 Flying R Airport
Harrisonville, Pennsylvania, USA

GOING TO HARRISONVILLE?


FAA INFORMATION EFFECTIVE 09 NOVEMBER 2017

Location

FAA Identifier: PN35
Lat/Long: 40-00-00.3090N / 078-04-59.0190W
40-00.005150N / 078-04.983650W
40.0000858 / -78.0830608
(estimated)
Elevation: 960 ft. / 293 m (estimated)
Variation: 09W (1985)
From city: 2 miles S of HARRISONVILLE, PA
Time zone: UTC -5 (UTC -4 during Daylight Saving Time)
Zip code: 17228

Airport Operations

Airport use: Private use. Permission required prior to landing
Activation date: 01/1974
Control tower: no
ARTCC: CLEVELAND CENTER
FSS: WILLIAMSPORT FLIGHT SERVICE STATION
Attendance: UNATNDD
Wind indicator: yes
Segmented circle: no

Nearby radio navigation aids

VOR radial/distance  VOR name  Freq  Var
THSr310/7.3ST THOMAS VORTAC115.0007W
HGRr337/(20.9)HAGERSTOWN VOR109.8007W
AOOr160/(22.0)ALTOONA VOR108.8007W
MRBr351/38.4MARTINSBURG VORTAC112.1007W
JSTr125/39.3JOHNSTOWN VORTAC113.0006W

 
NDB name  Hdg/Dist  Freq  Var  ID
CUMBERLAND065/37.231710WCBE -.-. -... .
STOYSTOWN108/38.620910WSYS ... -.-- ...

Airport Services

Runway Information

Runway 5/23

Dimensions: 1600 x 50 ft. / 488 x 15 m
Surface: turf
RUNWAY 5  RUNWAY 23
Traffic pattern: leftleft
Obstructions: none68 ft. tree, 77 ft. from runway

Airport Ownership and Management from official FAA records

Ownership: Privately-owned
Owner: KENNETH V. ROUZER
1171 POSSUM HOLLOW RD
HARRISONVILLE, PA 17228
Phone 717-485-3788
Manager: KENNETH V. ROUZER
1171 POSSUM HOLLOW RD
HARRISONVILLE, PA 17228
Phone 717-485-3788

Airport Operational Statistics

Aircraft based on the field: 1
Single engine airplanes: 1
    

Additional Remarks

RUNWAY 50-100 FT WIDE WITH SLIGHT DOG LEG.

Instrument Procedures

There are no published instrument procedures at PN35.

Some nearby airports with instrument procedures:

W35 - Potomac Airpark (19 nm S)
N68 - Franklin County Regional Airport (20 nm E)
KHMZ - Bedford County Airport (20 nm W)
KAOO - Altoona-Blair County Airport (21 nm NW)
KHGR - Hagerstown Regional Airport-Richard A Henson Field (24 nm SE)
 
Loc | Ops | Rwys | IFR | FBO | Links
Com | Nav | Svcs | Stats | Notes


 
Area around PN35 (Flying R Airport)
 
Road maps at: MapQuest Bing Google
 
Aerial photo
No photo
 
Sectional chart

 
Airport distance calculator
Flying to Flying R Airport? Find the distance to fly.

From to PN35

Sunrise and sunset
Times for 22-Nov-2017
 Local
(UTC-5)
 Zulu
(UTC)
Morning civil twilight06:3711:37
Sunrise07:0612:06
Sunset16:5121:51
Evening civil twilight17:2022:20

Current date and time
Zulu (UTC)  23-Nov-2017 01:46:02
Local (UTC-5)  22-Nov-2017 20:46:02
 
METAR
KHMZ 
20nm W 
230115Z AUTO 31015G20KT 10SM OVC033 00/M07 A3018 RMK AO2 T00021067
KAOO 
21nm NW 
230053Z AUTO 32016G22KT 10SM OVC028 01/M06 A3017 RMK AO2 SLP229 T00061061
KHGR 
24nm SE 
230053Z 33009KT 10SM BKN038 03/M04 A3016 RMK AO2 SLP227 T00281044
KMRB 
36nm S 
230053Z 34010KT 10SM CLR 03/M07 A3017 RMK AO2 SLP219 T00281067
KCBE 
39nm SW 
230106Z AUTO 29009G18KT 10SM OVC037 02/M05 A3025 RMK AO1
KJST 
39nm NW 
230054Z AUTO 32011KT 10SM OVC019 M02/M06 A3014 RMK AO2 SLP229 T10221061
TAF
KAOO 
21nm NW 
222151Z 2222/2318 31012G18KT P6SM BKN035 FM230100 32009KT P6SM BKN035 FM230400 31006KT P6SM SCT035 FM231100 27003KT P6SM SCT100 FM231300 26004KT P6SM BKN100
NOTAMs
Click for the latest NOTAMs
NOTAMs are issued by the DoD/FAA and will open in a separate window not controlled by AirNav.

 

 
 

Would you like to see your business listed on this page?

 If your business provides an interesting product or service to pilots, flight crews, aircraft, or users of the Flying R Airport, you should consider listing it here.  To start the listing process, click on the button below
 
Add a business
 

Other Pages about Flying R Airport

Update a link
 
Copyright © AirNav, LLC. All rights reserved. Privacy Policy  Contact